Location: Agendoh
(31.0664°N, 8.9343°W)
Time: 10:14:42
(UTC+00:00)

Cosmos 1151 Rocket - Pass Details

Date: 06 July 2022
Orbit: 592 x 614 km, 82.5° (Epoch: 07 August)

Event Time Altitude Azimuth Distance (km) Brightness Sun altitude
Rises 02:33:25 0° 351° (N) 2,886 7.2 -29.8°
Reaches altitude 10° 02:35:39 10° 349° (N) 1,977 6.2 -29.6°
Enters shadow 02:37:58 31° 343° (NNW) 1,093 4.6 -29.3°
